Pagewood Real Estate, NSW, 2035 Bayside (NSW)

Thinking about buying in Pagewood? Now could not be a better time, with a whopping 1608 properties either residential or commercial there's certainly plenty to choose from.

The average property price for this area is $1,422,000 with prices in this suburb ranging from $918,000 to $2,376,000.

Distance to the coast is 1 Km.

Pagewood Real Estate Market Outlook

Good balance between supply and demand ensures a range of affordable options within budget limits. Recent increases in listings may provide buying opportunities. In this area of average incomes, there is a mix of housing size and quality. While this may present buying opportunities, growth may be constrained. As buyers begin to examine Pagewood due to other areas being out of the price range and the trend to working from home, "gentrification" may incease price growth. A mix of professions and above average income earners in Pagewood provides good demand. The lower than average housing turnover of these people also means fewer regular listings leading to periodic large price increases. Lower than average population density constrains growth in Pagewood to an extent. However, where buyers are willing to compromise on housing and lifestyle choice, there are affordable options. Lower than average industry presence in Pagewood we believe will be less of a negative impact than it has in the past. Post-COVID and the growth in working from home has lessened the demand for local employment options. This may make Pagewood a better buying opportunity than it may have been in the past.

About

For Sale

McGrath UNIT 2, 33 DALLEY AV, PAGEWOOD, NSW, 2035 1 1 1 Price on request
McGrath UNIT 103, 104A BAY ST, PAGEWOOD, NSW, 2035 2 2 2 Price on Request
McGrath 13 PAGE ST, PAGEWOOD, NSW, 2035 7 3 3 Price on Request
McGrath 33 MACARTHUR AV, PAGEWOOD, NSW, 2035 4 2 2 Price on Request
McGrath 12 BIRDWOOD AV, PAGEWOOD, NSW, 2035 5 2 1 Auction 28th May
RayWhite 17 HEFFRON RD, PAGEWOOD, NSW, 2035 6 3 4 For Sale

More

Local Schools


Our Lady of the Annunciation Catholic Primary School

(While the above schools are located with the suburb of Pagewood there may also be nearby schools whose catchments cover this suburb)

Local Crime Stats


Average Local Climate by month


(mm)
RAIN
Min (°C)
TEMP
Max (°C)
TEMP
Min (%)
HUMIDITY
Max (%)
HUMIDITY
(m/sec)
WIND
(MJ/sq m)
SOLAR
Jan2.420.328.550.988.36.223.1
Feb4.120.227.552.787.86.020.1
Mar4.918.826.451.487.45.616.5
Apr3.515.623.949.486.95.014.0
May2.112.021.145.583.25.111.4
Jun4.110.018.350.886.15.29.2
Jul2.18.918.641.880.85.210.5
Aug2.09.419.636.878.15.713.2
Sept1.512.322.436.881.25.817.5
Oct2.014.824.141.484.16.021.0
Nov2.617.125.845.785.66.223.3
Dec2.018.927.446.786.46.224.6

source: Australian Government Bureau of Meteorology

Recently Sold

03-05-2022 $2,512,000 5 PROTHERO PL PAGEWOOD 2035
29-04-2022 $2,500,000 82 BANKS AVE PAGEWOOD 2035
11-04-2022 $2,000,000 61 PAGE ST PAGEWOOD 2035
08-04-2022 $2,525,000 3 KEYSOR RD PAGEWOOD 2035
05-04-2022 $955,000 67 / 15 BEGONIA ST PAGEWOOD 2035
17-03-2022 $3,200,000 5 WHITE RD PAGEWOOD 2035
28-02-2022 $2,300,000 84 BUNNERONG RD PAGEWOOD 2035
28-02-2022 $2,300,000 84 BUNNERONG RD PAGEWOOD 2035
24-02-2022 $2,672,500 36 PRINCE EDWARD CIR PAGEWOOD 2035
18-02-2022 $2,350,000 14 BEGONIA ST PAGEWOOD 2035
07-02-2022 $2,050,000 28 PAGE ST PAGEWOOD 2035
28-01-2022 $3,110,000 8 MONASH GDNS PAGEWOOD 2035
27-01-2022 $2,270,000 82 PAGE ST PAGEWOOD 2035
20-01-2022 $3,005,000 34 HOLLOWAY ST PAGEWOOD 2035
17-01-2022 $3,410,000 10 BEGONIA ST PAGEWOOD 2035
17-01-2022 $3,104,000 22 MAXWELL RD PAGEWOOD 2035
17-01-2022 $1,875,000 35 MYRTLE ST PAGEWOOD 2035
14-01-2022 $2,080,000 180 BAY ST PAGEWOOD 2035
14-01-2022 $2,270,000 86 PAGE ST PAGEWOOD 2035
13-01-2022 $1,610,000 9 / 11 BEGONIA ST PAGEWOOD 2035
23-12-2021 $2,600,000 178 BAY ST PAGEWOOD 2035
17-12-2021 $2,500,000 29 TOWNER GDNS PAGEWOOD 2035
13-12-2021 $3,250,000 11 DALLEY AVE PAGEWOOD 2035
13-12-2021 $1,550,000 46 / 15 BEGONIA ST PAGEWOOD 2035
06-12-2021 $3,020,000 6 MURRAY RD PAGEWOOD 2035
29-11-2021 $2,800,000 204 BANKSIA ST PAGEWOOD 2035
26-11-2021 $1,350,000 28 / 15 BEGONIA ST PAGEWOOD 2035
24-11-2021 $1,955,000 78 PAGE ST PAGEWOOD 2035
18-10-2021 $2,100,000 41 HEFFRON RD PAGEWOOD 2035
12-10-2021 $2,055,000 147 BANKSIA ST PAGEWOOD 2035
06-10-2021 $2,902,000 43 HEFFRON RD PAGEWOOD 2035
30-09-2021 $2,450,000 1 MARTIN AVE PAGEWOOD 2035
03-09-2021 $3,000,000 7 LANG AVE PAGEWOOD 2035
30-08-2021 $2,230,000 4 GIBSON ST PAGEWOOD 2035
27-08-2021 $1,659,000 39 / 15 BEGONIA ST PAGEWOOD 2035
26-07-2021 $1,400,000 6 / 15 BEGONIA ST PAGEWOOD 2035
22-07-2021 $2,900,000 3 PRINCE EDWARD CIR PAGEWOOD 2035
19-07-2021 $2,575,000 192 BAY ST PAGEWOOD 2035
16-07-2021 $1,350,000 26 / 15 BEGONIA ST PAGEWOOD 2035
16-07-2021 $1,350,000 26 / 15 BEGONIA ST PAGEWOOD 2035
16-07-2021 $1,350,000 26 / 15 BEGONIA ST PAGEWOOD 2035
16-07-2021 $1,350,000 26 / 15 BEGONIA ST PAGEWOOD 2035
07-07-2021 $2,030,000 15 HOLLOWAY ST PAGEWOOD 2035
05-07-2021 $1,825,000 198 BAY ST PAGEWOOD 2035
30-06-2021 $2,040,000 10 COWPER AVE PAGEWOOD 2035
29-06-2021 $3,350,000 24 BEGONIA ST PAGEWOOD 2035
17-06-2021 $872,500 70 / 15 BEGONIA ST PAGEWOOD 2035
09-06-2021 $1,687,500 42 / 15 BEGONIA ST PAGEWOOD 2035
08-06-2021 $1,750,000 17 WHITE RD PAGEWOOD 2035
02-06-2021 $2,700,000 176 BAY ST PAGEWOOD 2035

Residz covers 12m+ Australian properties and brings together a wealth of data to give you a better understanding of an area. From crime and schools to bush fire, flood risk and more. Begin your search for properties for sale or learn more about where you currently reside. Residz is an exciting next-generation Real Estate platform getting better by the day!